Regional Weather Roundup
Issued by NWS Goodland, KS

Home | Current Version | Previous Version | Graphics & Text | Print | Product List | Glossary On
Versions: 1 2 3 4 5 6 7 8 9 10 11 12 13 14 15 16 17 18 19 20 21 22 23 24 25 26 27 28 29 30 31 32 33 34 35 36 37 38 39 40 41 42 43 44 45 46 47 48 49 50
000
ASUS43 KGLD 271908
RWRGLD

GOODLAND FORECAST AREA HOURLY WEATHER ROUNDUP
NATIONAL WEATHER SERVICE GOODLAND KS
100 PM MDT TUE SEP 27 2016

...OFFICIAL OBSERVATIONS...

CITY           SKY/WX    TMP DP  RH WIND       PRES   REMARKS
GOODLAND KS    SUNNY     82  36  19 MISG      30.10F
HILL CITY KS   SUNNY     82  49  31 NW9       30.04F
IMPERIAL NEB   SUNNY     80  38  22 SW7       30.08F
MCCOOK NEB     SUNNY     80  45  28 W10       30.05F
AKRON CO       SUNNY     77  33  20 W9        30.16F
BURLINGTON CO  SUNNY     80  33  18 SW6       30.14F
LIMON CO       SUNNY     81  27  14 CALM      30.19F
$$

...UNOFFICIAL OBSERVATIONS...

CITY           SKY/WX    TMP DP  RH WIND       PRES   REMARKS
COLBY KS       SUNNY     84  46  26 SW8       30.09F
LENORA KS        N/A     79  32  18 MISG        N/A
NORTON KS      SUNNY     81  36  19 W8        30.03
SHARON SPRINGS   N/A     84  41  22 SW5         N/A
KIT CARSON CO    N/A     80  39  23 MISG        N/A
$$




USA.gov is the U.S. government's official web portal to all federal, state and local government web resources and services.